Home > Weather > Aarhus > Past weeks

Flag for Denmark Weather for the Past 2 Weeks in Aarhus, Denmark

Now
46 °F

Drizzle. Fog.


Feels Like: 42 °F
Forecast: 42 / 46 °F
Wind: 8 mph from South

Location: Tirstrup

Current Time: Feb 6, 2016 at 4:49:57 PM

Latest Report: Feb 6, 2016 at 4:20 PM


Visibility: 2 mi

Pressure: 29.65 "Hg

Humidity: 87%

Dew point: 43 °F

Location of AarhusLocation

Historic Weather in Aarhus — Graph

°F

Aarhus Temperature Yesterday

Maximum temperature yesterday: 43 °F (at 10:20 PM)
Minimum temperature yesterday: 28 °F (at 1:20 AM)
Average temperature yesterday: 37 °F

High & Low Weather Summary for the Past Weeks

 TemperatureHumidityPressure
High50 °F (Jan 27, 4:20 AM)100% (Jan 23, 2:50 PM)30.33 "Hg (Jan 23, 2:50 PM)
Low28 °F (Jan 22, 5:50 PM)53% (Feb 3, 1:50 PM)29.18 "Hg (Feb 2, 8:50 PM)
Average41 °F82%29.75 "Hg
* Reported Jan 22 3:20 PM — Feb 6 3:50 PM, Aarhus, Weather by CustomWeather, © 2016

Note: Actual official high and low records may vary slightly from our data, if they occured in-between our weather recording intervals... More about our weather records

Advertising

Aarhus Weather History for the Previous 24 Hours

 ConditionsComfort  
Time TempWeatherWind HumidityBarometerVisibility
3:50 PM
Sat, Feb 6
46 °FPartly sunny.6 mph87%29.65 "Hg3 mi
3:20 PM46 °FPartly sunny.6 mph87%29.68 "Hg3 mi
2:50 PM46 °FFog.7 mph87%29.65 "Hg2 mi
2:20 PM46 °FSprinkles. Fog.8 mph87%29.68 "Hg2 mi
1:50 PM45 °FDrizzle. Fog.7 mph93%29.68 "Hg2 mi
1:20 PM46 °FDrizzle. Low clouds.8 mph87%29.68 "Hg3 mi
12:50 PM45 °FDrizzle. Fog.9 mph93%29.71 "Hg2 mi
12:20 PM46 °FDrizzle. Fog.10 mph87%29.71 "Hg2 mi
11:50 AM46 °FDrizzle. Fog.8 mph87%29.71 "Hg2 mi
11:20 AM46 °FDrizzle. Low clouds.9 mph87%29.71 "Hg3 mi
10:50 AM45 °FDrizzle. Low clouds.9 mph93%29.71 "Hg3 mi
10:20 AM45 °FDrizzle. Low clouds.9 mph93%29.74 "Hg4 mi
9:50 AM45 °FDrizzle. Fog.9 mph93%29.74 "Hg3 mi
9:20 AM45 °FFog.8 mph93%29.74 "Hg3 mi
8:50 AM45 °FMore clouds than sun.9 mph87%29.71 "Hg4 mi
8:20 AM45 °FDrizzle. More clouds than sun.8 mph87%29.74 "HgN/A
7:50 AM45 °FLow clouds.8 mph87%29.74 "Hg6 mi
7:20 AM45 °FLow clouds.8 mph87%29.74 "HgN/A
6:50 AM45 °FPassing clouds.8 mph87%29.74 "HgN/A
6:20 AM45 °FPassing clouds.6 mph87%29.77 "HgN/A
5:50 AM45 °FOvercast.8 mph87%29.77 "HgN/A
5:20 AM45 °FLow clouds.8 mph87%29.77 "HgN/A
4:50 AM45 °FLow clouds.6 mph87%29.77 "Hg6 mi
4:20 AM45 °FLow clouds.6 mph87%29.80 "Hg5 mi
3:50 AM45 °FLow clouds.7 mph87%29.80 "Hg4 mi
3:20 AM45 °FFog.7 mph93%29.83 "Hg3 mi
2:50 AM45 °FLow clouds.7 mph87%29.83 "Hg3 mi
2:20 AM45 °FPassing clouds.6 mph87%29.83 "Hg4 mi
1:20 AM45 °FPassing clouds.6 mph87%29.83 "Hg4 mi
12:50 AM45 °FMostly cloudy.5 mph87%29.86 "Hg4 mi
12:20 AM45 °FPassing clouds.5 mph87%29.86 "Hg4 mi
11:20 PM
Fri, Feb 5
43 °FLow clouds.5 mph93%29.89 "Hg4 mi
10:50 PM43 °FFog.6 mph93%29.89 "Hg2 mi
10:20 PM43 °FFog.8 mph93%29.89 "Hg2 mi
9:50 PM41 °FFog.5 mph93%29.89 "Hg1 mi
9:20 PM41 °FFog.3 mph93%29.89 "Hg1 mi
8:50 PM41 °FFog.5 mph93%29.89 "Hg1 mi
8:20 PM41 °FFog.6 mph93%29.89 "Hg1 mi
7:50 PM41 °FFog.6 mph93%29.89 "Hg1 mi
7:20 PM41 °FFog.7 mph87%29.92 "Hg1 mi
6:50 PM39 °FFog.6 mph93%29.92 "Hg1 mi
6:20 PM39 °FFog.7 mph93%29.92 "Hg1 mi
5:50 PM39 °FFog.8 mph93%29.92 "Hg1 mi
5:20 PM39 °FFog.7 mph93%29.92 "Hg1 mi
4:50 PM39 °FLight rain. Fog.7 mph93%29.92 "Hg2 mi
4:20 PM39 °FDrizzle. Fog.7 mph93%29.95 "Hg2 mi
Weather by CustomWeather, © 2016

See weather overviewHow to use our weather pages